TimeEST,TemperatureF,Dew PointF,Humidity,Sea Level PressureIn,VisibilityMPH,Wind Direction,Wind SpeedMPH,Gust SpeedMPH,PrecipitationIn,Events,Conditions,WindDirDegrees,DateUTC
12:51 AM,36.0,26.1,67,30.42,10.0,North,5.8,-,N/A,,Overcast,360,2012-12-13 05:51:00
1:51 AM,33.1,25.0,72,30.41,10.0,NNE,8.1,-,N/A,,Overcast,20,2012-12-13 06:51:00
2:51 AM,33.1,27.0,78,30.42,10.0,NNE,6.9,-,N/A,,Mostly Cloudy,20,2012-12-13 07:51:00
3:51 AM,33.1,26.1,75,30.43,10.0,North,5.8,-,N/A,,Mostly Cloudy,10,2012-12-13 08:51:00
4:51 AM,33.1,26.1,75,30.43,10.0,NNE,6.9,-,N/A,,Mostly Cloudy,20,2012-12-13 09:51:00
5:51 AM,33.8,26.6,75,30.43,10.0,NNE,5.8,-,N/A,,Mostly Cloudy,30,2012-12-13 10:51:00
6:51 AM,33.1,26.1,75,30.47,10.0,NNE,3.5,-,N/A,,Scattered Clouds,30,2012-12-13 11:51:00
7:51 AM,34.0,26.1,73,30.47,10.0,NNE,3.5,-,N/A,,Mostly Cloudy,20,2012-12-13 12:51:00
8:51 AM,37.9,27.0,65,30.46,10.0,NNE,8.1,-,N/A,,Scattered Clouds,20,2012-12-13 13:51:00
9:51 AM,41.0,26.1,55,30.46,10.0,NNE,8.1,-,N/A,,Partly Cloudy,30,2012-12-13 14:51:00
10:51 AM,43.0,25.0,49,30.46,10.0,NE,5.8,-,N/A,,Clear,40,2012-12-13 15:51:00
11:51 AM,45.0,24.1,44,30.44,10.0,NNE,9.2,-,N/A,,Scattered Clouds,20,2012-12-13 16:51:00
12:51 PM,46.0,24.1,42,30.41,10.0,North,9.2,-,N/A,,Scattered Clouds,10,2012-12-13 17:51:00
1:51 PM,46.0,24.1,42,30.40,10.0,North,3.5,-,N/A,,Partly Cloudy,10,2012-12-13 18:51:00
2:51 PM,46.0,23.0,40,30.39,10.0,NE,4.6,-,N/A,,Partly Cloudy,40,2012-12-13 19:51:00
3:51 PM,45.0,23.0,42,30.38,10.0,East,3.5,-,N/A,,Partly Cloudy,100,2012-12-13 20:51:00
4:51 PM,44.1,23.0,43,30.38,10.0,Calm,Calm,-,N/A,,Partly Cloudy,0,2012-12-13 21:51:00
6:51 PM,39.2,24.8,56,30.38,10.0,SSW,3.5,-,N/A,,Partly Cloudy,200,2012-12-13 23:51:00
7:51 PM,41.0,26.1,55,30.36,10.0,Calm,Calm,-,N/A,,Partly Cloudy,0,2012-12-14 00:51:00
8:51 PM,39.9,25.0,55,30.34,10.0,Calm,Calm,-,N/A,,Partly Cloudy,0,2012-12-14 01:51:00
9:51 PM,39.0,27.0,62,30.35,10.0,Calm,Calm,-,N/A,,Partly Cloudy,0,2012-12-14 02:51:00
10:51 PM,35.6,24.8,65,30.34,10.0,SW,5.8,-,N/A,,Partly Cloudy,230,2012-12-14 03:51:00
11:51 PM,36.0,25.0,64,30.33,10.0,WSW,4.6,-,N/A,,Partly Cloudy,250,2012-12-14 04:51:00